Flag for Sweden Weather past 2 weeks in Linköping, Sweden

Now
55 °F

Cool.


Feels Like: 55 °F
Forecast: 59 / 80 °F
Wind: 1 mph from Southwest

Location: Linkoping / Saab

Current Time: Jul 1, 2015 at 4:46:40 AM

Latest Report: Jul 1, 2015 at 4:20 AM


Visibility: N/A

Pressure: 30.21 "Hg

Humidity: 94%

Dew point: 54 °F

Location of LinköpingLocation

Historic Weather in Linköping — Graph

°F

Linköping temperature yesterday

Maximum temperature yesterday: 70 °F (at 4:50 PM)
Minimum temperature yesterday: 55 °F (at 3:20 AM)
Average temperature yesterday: 61 °F

Past Weeks' High & Low Weather Summary

 TemperatureHumidityPressure
High73 °F (Jun 28, 12:50 PM)100% (Jun 17, 7:20 PM)30.21 "Hg (Jun 17, 7:20 PM)
Low45 °F (Jun 21, 5:20 AM)32% (Jun 16, 7:20 PM)29.56 "Hg (Jun 18, 5:50 PM)
Average57 °F77%29.85 "Hg
* Reported Jun 16 3:20 AM — Jul 1 3:50 AM, Linköping, Weather by CustomWeather, © 2015

Note: Actual official high and low records may vary slightly from our data, if they occured in-between our weather recording intervals... More about our weather records

Advertising

Linköping weather history for previous 24 hours

 ConditionsComfort  
Time TempWeatherWind HumidityBarometerVisibility
3:50 AM
Wed, Jul 1
55 °FCool.2 mph94%30.21 "HgN/A
3:20 AM55 °FCool.1 mph94%30.18 "HgN/A
2:50 AM57 °FCool.3 mph88%30.18 "HgN/A
2:20 AM57 °FPassing clouds.2 mph88%30.18 "HgN/A
1:50 AM59 °FPassing clouds.3 mph82%30.18 "HgN/A
1:20 AM57 °FPassing clouds.2 mph88%30.18 "HgN/A
12:50 AM55 °FPassing clouds.3 mph88%30.18 "HgN/A
12:20 AM59 °FCool.No wind82%30.15 "HgN/A
11:50 PM
Tue, Jun 30
59 °FCool.2 mph88%30.15 "HgN/A
10:50 PM59 °FSunny.3 mph88%30.15 "Hg10 mi
10:20 PM63 °FPassing clouds.5 mph77%30.12 "HgN/A
9:50 PM66 °FSunny.No wind68%30.12 "Hg10 mi
9:20 PM66 °FSunny.2 mph68%30.12 "Hg10 mi
8:50 PM66 °FSunny.2 mph68%30.12 "Hg10 mi
8:20 PM68 °FSunny.5 mph64%30.09 "Hg10 mi
7:50 PM68 °FPassing clouds.5 mph60%30.09 "HgN/A
6:50 PM68 °FPassing clouds.3 mph69%30.09 "HgN/A
6:20 PM64 °FPassing clouds.3 mph78%30.09 "HgN/A
5:50 PM63 °FScattered clouds.6 mph88%30.09 "HgN/A
4:50 PM70 °FPassing clouds.7 mph64%30.07 "HgN/A
4:20 PM68 °FPassing clouds.8 mph69%30.07 "HgN/A
3:50 PM68 °FPassing clouds.9 mph64%30.07 "HgN/A
2:50 PM64 °FScattered clouds.3 mph73%30.07 "HgN/A
1:50 PM63 °FPartly sunny.9 mph77%30.07 "HgN/A
1:20 PM63 °FPartly sunny.10 mph77%30.07 "HgN/A
12:50 PM61 °FPartly sunny.13 mph77%30.07 "HgN/A
12:20 PM61 °FPartly sunny.12 mph77%30.07 "HgN/A
11:50 AM61 °FPartly sunny.12 mph77%30.04 "HgN/A
11:20 AM59 °FPartly sunny.12 mph82%30.04 "HgN/A
10:50 AM59 °FPartly sunny.12 mph82%30.04 "HgN/A
10:20 AM59 °FPartly sunny.10 mph82%30.04 "HgN/A
9:50 AM59 °FPartly sunny.9 mph77%30.01 "HgN/A
9:20 AM59 °FPartly sunny.10 mph77%30.01 "HgN/A
8:50 AM57 °FPartly sunny.8 mph82%30.01 "HgN/A
8:20 AM57 °FPartly sunny.9 mph82%30.01 "HgN/A
7:50 AM57 °FPartly sunny.9 mph82%30.01 "HgN/A
7:20 AM57 °FPartly sunny.8 mph82%30.01 "HgN/A
6:50 AM57 °FPartly sunny.7 mph82%29.98 "HgN/A
6:20 AM55 °FPartly sunny.5 mph94%29.98 "HgN/A
5:50 AM55 °FScattered clouds.3 mph94%29.98 "HgN/A
5:20 AM55 °FSunny.3 mph94%29.98 "Hg10 mi
4:50 AM55 °FCool.2 mph94%29.98 "HgN/A
4:20 AM55 °FCool.5 mph88%29.98 "HgN/A
Weather by CustomWeather, © 2015

See weather overviewHow to use our weather pages